Stations météo

Publicité
Carcassonne, France (7635): Température de l'air & dewpoint: 15.10.2017 19:00:00 - 21.10.2017 19:00:00 (CEST)Carcassonne, France (7635): Température de l'air 5cm: 15.10.2017 19:00:00 - 21.10.2017 19:00:00 (CEST)Carcassonne, France (7635): Température de l'air -20cm & Température de l'air -100cm: 15.10.2017 19:00:00 - 21.10.2017 19:00:00 (CEST)Carcassonne, France (7635): Vitesse du vent & gusts: 15.10.2017 19:00:00 - 21.10.2017 19:00:00 (CEST)Carcassonne, France (7635): Direction du vent: 15.10.2017 19:00:00 - 21.10.2017 19:00:00 (CEST)Carcassonne, France (7635): reduced air pressure: 15.10.2017 19:00:00 - 21.10.2017 19:00:00 (CEST)Carcassonne, France (7635): visibility: 15.10.2017 19:00:00 - 21.10.2017 19:00:00 (CEST)Carcassonne, France (7635): Ensoleillement: 15.10.2017 19:00:00 - 21.10.2017 19:00:00 (CEST)Carcassonne, France (7635): Quantités de précipitations: 15.10.2017 19:00:00 - 21.10.2017 19:00:00 (CEST)
Date & Time tt [°C] td [°C] tt 5cm [°C] tt -20cm [°C] tt -100cm [°C] ff [km/h] ff [knt] fx [km/h] fx [knt] dd ppp [hPa] vv [km] sd [min] rr [mm]
21.10.2017 19:00:00 14,0 11,3 12,9 20,0 19,7 17 9 37 20 W 1024,6 52 0 0,0
21.10.2017 18:00:00 14,3 13,0 13,9 20,0 19,7 24 13 45 25 WNW 1024,0 10 0 0,2
21.10.2017 17:00:00 15,0 13,0 14,7 20,0 19,7 28 15 49 26 W 1023,1 11 0 0,0
21.10.2017 16:00:00 16,2 14,2 15,9 19,8 19,6 28 15 45 24 W 1022,1 10 0 0,0
21.10.2017 15:00:00 20,2 12,9 20,1 19,5 19,7 24 13 36 20 WNW 1021,2 10 31 0,0
21.10.2017 14:00:00 20,2 13,9 21,2 19,2 19,7 24 13 37 20 WNW 1021,5 10 30 0,0
21.10.2017 13:00:00 20,7 13,6 22,5 19,0 19,7 23 13 37 20 WNW 1021,8 54 49 0,0
21.10.2017 12:00:00 20,1 13,3 19,3 18,9 19,7 21 11 32 17 W 1022,0 10 15 0,0
21.10.2017 11:00:00 18,6 15,8 18,7 18,9 19,7 8 4 18 10 NW 1022,0 10 2 0,0
21.10.2017 10:00:00 18,9 15,9 18,1 19,0 19,7 4 2 9 5 - 1020,8 10 60 0,0
21.10.2017 09:00:00 16,9 15,8 13,8 19,1 19,7 4 2 9 5 - 1020,4 9 16 0,0
21.10.2017 08:00:00 16,8 14,8 14,6 19,1 19,7 2 1 8 4 - 1020,0 10 0 0,0
21.10.2017 07:00:00 17,5 15,3 17,0 19,2 19,7 0 0 8 5 N 1019,8 17 0 0,0
21.10.2017 06:00:00 17,5 15,3 17,2 19,3 19,7 6 3 23 12 ESE 1018,6 18 0 0,0
21.10.2017 05:00:00 17,4 15,2 17,2 19,3 19,7 11 6 27 14 E 1018,5 10 0 0,0
21.10.2017 04:00:00 17,5 15,1 17,3 19,4 19,7 13 7 23 13 E 1018,4 20 0 0,0
21.10.2017 03:00:00 17,5 15,3 17,3 19,5 19,7 13 7 23 12 E 1018,6 10 0 0,0
21.10.2017 02:00:00 17,6 15,6 17,4 19,6 19,7 13 7 23 12 E 1018,9 10 0 0,0
21.10.2017 01:00:00 17,7 15,9 17,5 19,7 19,7 15 8 32 17 E 1019,1 10 0 0,0
21.10.2017 00:00:00 17,7 16,0 17,2 19,8 19,7 16 9 28 15 E 1019,3 10 0 0,0
20.10.2017 23:00:00 17,5 16,2 17,1 19,9 19,7 21 11 31 17 E 1019,2 9 0 0,0
20.10.2017 22:00:00 17,6 16,5 17,1 20,0 19,7 15 8 26 14 E 1019,2 8 0 0,0
20.10.2017 21:00:00 17,7 16,2 17,1 20,2 19,7 14 7 27 15 E 1019,1 11 0 0,0
20.10.2017 20:00:00 18,6 15,8 18,1 20,2 19,7 16 9 27 14 E 1018,7 20 0 0,0
20.10.2017 19:00:00 19,7 16,3 19,4 20,2 19,7 16 8 23 13 E 1018,0 26 0 0,0
20.10.2017 18:00:00 20,5 15,7 20,6 20,1 19,7 12 7 23 12 E 1017,8 26 3 0,0
20.10.2017 17:00:00 20,8 16,2 21,9 19,9 19,7 16 9 23 12 E 1017,7 25 2 0,0
20.10.2017 16:00:00 20,9 16,1 22,6 19,6 19,7 9 5 19 10 E 1018,0 10 8 0,0
20.10.2017 15:00:00 21,2 15,9 23,0 19,2 19,8 11 6 20 11 E 1017,9 10 40 0,0
20.10.2017 14:00:00 20,1 15,9 23,2 18,9 19,8 13 7 22 12 E 1018,2 10 52 0,0
20.10.2017 13:00:00 19,2 16,2 19,6 18,7 19,8 12 6 20 11 E 1018,7 16 20 0,0
20.10.2017 12:00:00 18,2 15,6 18,2 18,6 19,8 15 8 21 11 ENE 1018,9 10 22 0,0
20.10.2017 11:00:00 16,5 15,4 16,3 18,5 19,8 5 3 8 5 E 1018,6 9 1 0,0
20.10.2017 10:00:00 15,5 14,4 15,1 18,6 19,8 3 2 6 3 E 1018,2 15 5 0,0
20.10.2017 09:00:00 14,9 13,9 14,4 18,6 19,8 0 0 5 3 N 1017,9 13 2 0,0
20.10.2017 08:00:00 14,6 13,6 14,0 18,7 19,8 2 1 8 5 SE 1017,1 15 0 0,0
20.10.2017 07:00:00 14,2 13,1 14,0 18,7 19,7 7 4 11 6 W 1016,8 9 0 0,0
20.10.2017 06:00:00 14,6 13,8 14,5 18,8 19,7 5 3 8 4 WNW 1016,4 9 0 0,0
20.10.2017 05:00:00 14,8 14,0 14,6 18,9 19,8 4 2 9 5 - 1015,6 8 0 0,0
20.10.2017 04:00:00 14,8 14,0 14,4 18,9 19,8 5 3 10 5 WNW 1015,4 18 0 0,0
20.10.2017 03:00:00 14,6 13,6 14,1 19,0 19,7 0 0 5 3 N 1015,4 10 0 0,0
20.10.2017 02:00:00 14,7 13,7 14,4 19,1 19,8 3 1 9 5 SSE 1015,0 10 0 0,2
20.10.2017 01:00:00 14,9 13,9 14,2 19,2 19,8 0 0 4 2 N 1014,6 3,3 0 0,0
20.10.2017 00:00:00 14,6 13,6 13,9 19,4 19,8 0 0 6 4 N 1014,2 10 0 0,0
19.10.2017 23:00:00 14,8 13,8 14,0 19,5 19,8 0 0 7 4 N 1013,7 11 0 0,0
19.10.2017 22:00:00 14,5 13,4 13,6 19,7 19,8 0 0 8 4 N 1013,8 13 0 0,0
19.10.2017 21:00:00 15,0 13,9 14,4 19,8 19,8 5 3 14 8 SSW 1013,4 7 0 0,0
19.10.2017 20:00:00 15,5 14,4 14,9 19,9 19,8 6 4 11 6 SW 1012,8 3,7 0 0,0
19.10.2017 19:00:00 15,4 14,1 14,8 19,9 19,7 10 5 19 10 WNW 1012,0 15 0 5,0
19.10.2017 18:00:00 16,0 14,2 15,1 19,9 19,8 8 4 18 10 W 1011,5 16 0 1,4
19.10.2017 17:00:00 16,9 14,0 16,9 19,7 19,8 11 6 18 10 WNW 1010,9 49 6 0,0
19.10.2017 16:00:00 17,6 14,1 16,2 19,5 19,8 9 5 14 8 WNW 1011,0 10 19 0,2
19.10.2017 15:00:00 16,5 13,4 16,0 19,3 19,7 5 3 18 10 - 1011,3 10 5 0,0
19.10.2017 14:00:00 16,4 14,2 15,7 19,3 19,8 11 6 17 9 WNW 1011,4 10 12 0,0
19.10.2017 13:00:00 14,8 13,8 14,0 19,4 19,8 8 4 13 7 NW 1012,3 9 0 1,0
19.10.2017 12:00:00 13,9 12,9 13,8 19,6 19,8 5 3 11 6 WNW 1012,7 5 0 0,0
19.10.2017 11:00:00 13,7 12,8 13,2 19,7 19,7 2 1 18 10 W 1012,6 3,0 0 6,5
19.10.2017 10:00:00 13,6 12,3 13,2 19,8 19,7 4 2 12 6 - 1011,9 1,6 0 3,8
19.10.2017 09:00:00 14,3 12,7 13,6 19,9 19,8 4 2 8 4 - 1011,4 4,2 0 0,4
19.10.2017 08:00:00 14,7 13,1 14,2 20,0 19,7 5 3 11 6 NW 1011,2 10 0 0,4
19.10.2017 07:00:00 15,9 14,4 14,3 20,1 19,7 10 5 31 17 ESE 1011,0 20 0 0,0
19.10.2017 06:00:00 14,8 12,5 14,1 20,3 19,7 5 3 18 10 N 1010,8 57 0 0,0
19.10.2017 05:00:00 16,1 14,3 15,4 20,4 19,7 4 2 18 10 - 1010,1 10 0 0,0
19.10.2017 04:00:00 16,8 14,8 15,6 20,5 19,7 9 5 - - ESE 1009,6 20 0 0,4
19.10.2017 03:00:00 18,1 16,1 17,3 20,7 19,7 29 15 45 24 E 1010,2 17 0 0,0
19.10.2017 02:00:00 18,2 15,8 17,8 20,8 19,7 21 11 48 26 E 1010,0 10 0 0,0
19.10.2017 01:00:00 19,0 13,4 18,5 20,9 19,7 34 18 54 29 E 1009,5 10 0 0,0
19.10.2017 00:00:00 19,4 14,4 18,9 21,0 19,7 29 16 - - E 1008,7 39 0 0,0
18.10.2017 23:00:00 19,5 16,2 18,4 21,2 19,7 27 15 40 22 E 1009,8 26 0 0,0
18.10.2017 22:00:00 19,7 16,5 18,8 21,2 19,7 22 12 45 25 E 1009,9 20 0 0,0
18.10.2017 21:00:00 19,5 16,9 19,2 21,3 19,7 30 16 50 27 E 1009,7 20 0 0,0
18.10.2017 20:00:00 19,6 17,0 19,5 21,4 19,7 22 12 46 25 E 1009,8 19 0 0,0
18.10.2017 19:00:00 19,9 17,1 19,8 21,4 19,7 35 19 59 32 E 1009,4 19 0 0,0
18.10.2017 18:00:00 20,3 16,9 20,5 21,3 19,7 31 17 61 33 E 1009,4 10 0 0,0
18.10.2017 17:00:00 21,1 16,7 21,3 21,0 19,7 34 18 59 32 E 1009,5 10 1 0,0
18.10.2017 16:00:00 23,0 16,5 24,4 20,7 19,7 37 20 65 35 E 1009,5 10 53 0,0
18.10.2017 15:00:00 23,5 15,8 26,8 20,3 19,7 39 21 60 33 E 1009,8 10 60 0,0
18.10.2017 14:00:00 23,5 15,8 24,8 19,9 19,7 41 22 56 30 E 1010,7 10 56 0,0
18.10.2017 13:00:00 22,7 15,3 23,7 19,7 19,7 37 20 57 31 E 1011,8 10 58 0,0
18.10.2017 12:00:00 21,7 15,3 21,1 19,5 19,7 35 19 53 28 E 1012,8 10 55 0,0
18.10.2017 11:00:00 20,1 15,5 20,3 19,5 19,7 32 17 50 27 E 1013,3 19 50 0,0
18.10.2017 10:00:00 19,0 15,7 18,2 19,5 19,7 21 11 45 24 ESE 1013,9 10 40 0,0
18.10.2017 09:00:00 18,0 15,8 17,2 19,6 19,7 19 10 37 20 E 1014,3 18 7 0,0
18.10.2017 08:00:00 17,6 15,6 17,1 19,6 19,7 24 13 36 20 E 1014,3 17 0 0,0
18.10.2017 07:00:00 17,8 15,8 17,4 19,7 19,7 24 13 39 21 E 1014,6 18 0 0,0
18.10.2017 06:00:00 17,7 15,7 17,3 19,8 19,7 21 11 41 22 E 1015,0 10 0 0,0
18.10.2017 05:00:00 17,9 15,9 17,7 19,9 19,7 25 14 41 22 E 1015,5 17 0 0,0
18.10.2017 04:00:00 18,1 16,1 17,5 19,9 19,7 27 15 45 25 E 1016,0 16 0 0,0
18.10.2017 03:00:00 17,9 16,2 17,2 20,0 19,7 31 17 44 24 E 1016,3 15 0 0,0
18.10.2017 02:00:00 17,9 16,2 17,4 20,1 19,7 28 15 41 22 E 1016,7 15 0 0,0
18.10.2017 01:00:00 18,3 16,5 18,0 20,2 19,7 18 10 34 19 E 1017,7 16 0 0,0
18.10.2017 00:00:00 18,4 16,4 18,0 20,2 19,7 22 12 42 23 E 1017,9 10 0 0,0
17.10.2017 23:00:00 18,2 16,4 17,8 20,3 19,7 22 12 36 20 E 1018,2 10 0 0,0
17.10.2017 22:00:00 18,4 16,2 18,2 20,4 19,7 26 14 48 26 E 1018,1 10 0 0,0
17.10.2017 21:00:00 18,6 16,0 18,5 20,4 19,7 29 16 48 26 E 1018,3 10 0 0,0
17.10.2017 20:00:00 18,6 15,8 18,5 20,5 19,7 28 15 47 26 E 1018,5 10 0 0,0
17.10.2017 19:00:00 18,7 15,8 18,7 20,4 19,7 31 17 50 27 E 1018,4 10 0 0,0
17.10.2017 18:00:00 19,1 15,6 19,3 20,4 19,7 31 17 56 30 E 1018,8 10 2 0,0
17.10.2017 17:00:00 19,3 15,2 20,0 20,2 19,7 35 19 58 31 E 1019,0 10 0 0,0
17.10.2017 16:00:00 19,6 15,3 20,6 20,1 19,7 35 19 58 31 E 1019,5 10 0 0,0
17.10.2017 15:00:00 19,9 15,1 20,5 20,0 19,7 31 17 55 30 E 1020,1 10 3 0,0
17.10.2017 14:00:00 19,4 15,1 20,5 19,9 19,7 35 19 63 34 E 1020,8 31 3 0,0
17.10.2017 13:00:00 19,5 15,2 20,0 19,8 19,6 37 20 55 30 E 1021,4 10 0 0,0
17.10.2017 12:00:00 18,7 15,0 19,2 19,8 19,6 34 18 57 31 E 1022,0 10 0 0,0
17.10.2017 11:00:00 18,6 15,3 18,0 19,9 19,6 34 18 50 27 E 1022,2 10 2 0,0
17.10.2017 10:00:00 17,5 15,1 17,3 19,9 19,6 29 16 48 26 E 1022,6 10 0 0,0
17.10.2017 09:00:00 17,1 15,1 17,1 20,0 19,7 28 15 47 25 E 1022,5 13 0 0,0
17.10.2017 08:00:00 17,1 15,1 17,1 20,0 19,6 26 14 45 25 E 1022,6 10 0 0,0
17.10.2017 07:00:00 17,6 15,2 17,5 20,1 19,6 22 12 39 21 E 1022,7 10 0 0,0
17.10.2017 06:00:00 17,9 15,7 17,8 20,2 19,6 28 15 40 22 E 1022,8 18 0 0,0
17.10.2017 05:00:00 17,9 15,7 17,9 20,2 19,6 26 14 37 20 E 1023,1 16 0 0,0
17.10.2017 04:00:00 18,0 15,8 17,9 20,3 19,6 21 11 36 20 E 1023,5 10 0 0,0
17.10.2017 03:00:00 18,1 15,7 18,0 20,4 19,6 25 14 39 21 E 1024,2 17 0 0,0
17.10.2017 02:00:00 18,1 15,7 18,1 20,5 19,6 22 12 37 20 E 1024,5 20 0 0,0
17.10.2017 01:00:00 18,2 15,6 18,1 20,6 19,6 21 11 40 22 E 1024,9 10 0 0,0
17.10.2017 00:00:00 18,3 15,4 18,2 20,7 19,6 24 13 40 22 E 1025,1 21 0 0,0
16.10.2017 23:00:00 18,4 15,5 18,2 20,8 19,6 24 13 39 21 E 1025,2 23 0 0,0
16.10.2017 22:00:00 18,2 15,3 17,6 20,9 19,6 23 12 40 22 E 1025,0 22 0 0,0
16.10.2017 21:00:00 18,2 14,9 17,8 21,0 19,6 23 12 42 23 E 1025,0 25 0 0,0
16.10.2017 20:00:00 18,8 14,5 18,4 21,1 19,6 25 13 43 23 E 1025,1 32 0 0,0
16.10.2017 19:00:00 19,5 14,5 19,1 21,0 19,6 24 13 50 27 E 1024,8 35 42 0,0
16.10.2017 18:00:00 20,7 14,6 21,4 20,9 19,6 31 17 51 28 E 1024,6 10 60 0,0
16.10.2017 17:00:00 21,8 14,7 23,8 20,6 19,6 34 18 55 30 E 1024,6 10 60 0,0
16.10.2017 16:00:00 22,2 14,8 23,0 20,3 19,6 31 17 53 29 E 1024,9 35 49 0,0
16.10.2017 15:00:00 22,3 14,9 23,7 20,0 19,6 26 14 54 29 E 1025,0 10 47 0,0
16.10.2017 14:00:00 22,0 15,6 22,2 19,9 19,6 35 19 54 29 E 1025,6 10 25 0,0
16.10.2017 13:00:00 21,3 16,0 20,6 19,8 19,6 29 16 53 29 E 1026,1 10 5 0,0
16.10.2017 12:00:00 19,5 15,8 19,8 19,8 19,6 30 16 52 28 E 1026,3 20 0 0,0
16.10.2017 11:00:00 19,0 15,9 19,0 19,9 19,6 34 19 52 28 E 1026,2 23 0 0,0
16.10.2017 10:00:00 18,6 15,7 18,4 19,9 19,6 31 17 44 24 E 1026,0 10 0 0,0
16.10.2017 09:00:00 18,3 15,5 18,1 19,9 19,6 28 15 47 25 E 1025,1 10 0 0,0
16.10.2017 08:00:00 18,2 15,6 18,1 20,0 19,6 28 15 47 26 E 1024,4 19 0 0,0
16.10.2017 07:00:00 18,3 15,7 18,2 20,0 19,6 27 15 46 25 E 1024,3 18 0 0,0
16.10.2017 06:00:00 18,5 15,9 18,4 20,1 19,6 22 12 46 25 E 1024,2 10 0 0,0
16.10.2017 05:00:00 18,6 16,0 18,5 20,2 19,5 26 14 43 23 E 1024,3 10 0 0,0
16.10.2017 04:00:00 18,7 15,9 18,6 20,2 19,5 26 14 48 26 E 1024,5 10 0 0,0
16.10.2017 03:00:00 18,8 16,0 18,8 20,3 19,5 28 15 49 26 E 1024,8 24 0 0,0
16.10.2017 02:00:00 18,9 16,1 18,8 20,4 19,6 26 14 43 23 E 1025,0 10 0 0,0
16.10.2017 01:00:00 18,9 16,3 18,8 20,4 19,5 23 13 42 23 E 1025,4 22 0 0,0
16.10.2017 00:00:00 18,9 16,5 18,8 20,5 19,6 28 15 46 25 E 1025,4 10 0 0,0
15.10.2017 23:00:00 19,0 16,6 18,9 20,6 19,6 29 16 44 24 E 1025,5 10 0 0,0
15.10.2017 22:00:00 19,1 16,7 19,0 20,7 19,5 26 14 47 26 E 1025,4 22 0 0,0
15.10.2017 21:00:00 19,3 16,7 19,2 20,7 19,6 24 13 47 26 E 1025,5 10 0 0,0
15.10.2017 20:00:00 19,5 16,9 19,5 20,7 19,6 28 15 51 27 E 1025,4 26 0 0,0
15.10.2017 19:00:00 20,0 16,8 20,0 20,7 19,6 31 17 51 28 E 1025,0 10 0 0,0

tt = Température de l'air
td = dewpoint
tt 5cm = Température de l'air 5cm
tt -20cm = Température de l'air -20cm
tt -100cm = Température de l'air -100cm
ff = Vitesse du vent
fx = gusts
dd = Direction du vent
ppp = reduced air pressure
vv = visibility
sd = Ensoleillement
rr = Quantités de précipitations

stations d'obs. à proximité